Location: Ehrke Reservoir
(40.0279°N, 99.6641°W)
Time: 12:54:56
(UTC+00:00)

Cosmos 1607 - Pass Details

Date: 20 January 2020
Orbit: 924 x 978 km, 65.0° (Epoch: 16 February)

Event Time Altitude Azimuth Distance (km) Brightness Sun altitude
Rises 00:03:05 0° 209° (SSW) 3,553 7.9 -4.5°
Reaches altitude 10° 00:05:35 10° 210° (SSW) 2,613 7.2 -5.0°
Maximum altitude 00:11:41 90° 124° (SE) 931 4.0 -6.0°
Drops below altitude 10° 00:17:51 10° 32° (NNE) 2,645 5.8 -7.1°
Enters shadow 00:20:03 - 32° (NNE) 3,467 6.4 -7.5°
